Stations météo

Publicité
La Hague, France (7020): Température de l'air & dewpoint: 31.03.2020 15:00:00 - 06.04.2020 15:00:00 (CEST)La Hague, France (7020): Vitesse du vent & gusts: 31.03.2020 15:00:00 - 06.04.2020 15:00:00 (CEST)La Hague, France (7020): Direction du vent: 31.03.2020 15:00:00 - 06.04.2020 15:00:00 (CEST)La Hague, France (7020): reduced air pressure: 31.03.2020 15:00:00 - 06.04.2020 15:00:00 (CEST)La Hague, France (7020): visibility: 31.03.2020 15:00:00 - 06.04.2020 15:00:00 (CEST)La Hague, France (7020): Quantités de précipitations: 31.03.2020 15:00:00 - 06.04.2020 15:00:00 (CEST)
Date & Time tt [°C] td [°C] ff [km/h] ff [knt] fx [km/h] fx [knt] dd ppp [hPa] vv [km] rr [mm]
06.04.2020 15:00:00 13,1 10,8 16 9 22 12 SW 1021,4 - 0,0
06.04.2020 14:00:00 12,7 10,6 16 9 21 11 SW 1020,6 10 0,0
06.04.2020 13:00:00 12,8 10,9 15 8 21 11 SW 1019,6 - 0,0
06.04.2020 12:00:00 12,2 10,4 14 8 23 13 SW 1018,6 - 0,0
06.04.2020 11:00:00 12,0 10,4 18 10 24 13 SW 1017,4 10 0,0
06.04.2020 10:00:00 11,4 10,1 16 9 24 13 SW 1016,2 - 0,0
06.04.2020 09:00:00 10,8 9,7 17 9 25 13 SSW 1015,0 - 0,0
06.04.2020 08:00:00 10,5 9,3 11 6 16 9 SW 1013,9 12 0,0
06.04.2020 07:00:00 10,5 9,1 12 7 42 23 WSW 1012,8 - 0,0
06.04.2020 06:00:00 12,6 9,6 29 16 42 23 S 1011,4 - 0,0
06.04.2020 05:00:00 12,0 9,0 27 15 41 22 S 1010,7 14 0,2
06.04.2020 04:00:00 12,6 9,2 26 14 39 21 S 1010,7 - 0,2
06.04.2020 03:00:00 13,0 8,9 23 12 37 20 S 1010,3 - 0,0
06.04.2020 02:00:00 13,7 8,1 28 15 41 22 S 1010,4 12 0,0
06.04.2020 01:00:00 13,6 7,8 25 14 54 29 S 1010,2 - 0,0
06.04.2020 00:00:00 15,0 7,3 31 17 50 27 S 1010,2 - 0,0
05.04.2020 23:00:00 15,2 7,2 36 19 61 33 S 1010,0 25 0,0
05.04.2020 22:00:00 15,5 7,8 36 19 59 32 S 1009,8 - 0,0
05.04.2020 21:00:00 15,0 8,0 29 15 45 25 S 1009,7 - 0,0
05.04.2020 20:00:00 16,0 8,5 30 16 49 26 S 1009,3 18 0,0
05.04.2020 19:00:00 17,4 8,3 29 16 47 25 S 1009,0 - 0,0
05.04.2020 18:00:00 18,2 8,5 29 16 52 28 S 1009,0 - 0,0
05.04.2020 17:00:00 19,3 9,2 31 17 54 29 S 1009,4 - 0,0
05.04.2020 16:00:00 19,5 9,7 30 16 49 27 S 1010,1 - 0,0
05.04.2020 15:00:00 17,5 8,4 37 20 54 29 SSE 1010,5 - 0,0
05.04.2020 14:00:00 16,8 8,2 31 17 52 28 S 1011,1 18 0,0
05.04.2020 13:00:00 19,1 8,4 32 18 57 31 S 1011,1 - 0,0
05.04.2020 12:00:00 17,8 7,5 35 19 55 30 S 1011,4 - 0,0
05.04.2020 11:00:00 16,4 6,2 29 16 55 30 SSE 1011,8 30 0,0
05.04.2020 10:00:00 15,0 4,7 34 19 53 29 SSE 1012,0 - 0,0
05.04.2020 09:00:00 13,4 4,0 37 20 53 29 SSE 1012,3 - 0,0
05.04.2020 08:00:00 13,3 3,6 34 18 50 27 SSE 1012,0 18 0,0
05.04.2020 07:00:00 12,6 3,8 35 19 52 28 SSE 1012,3 - 0,0
05.04.2020 06:00:00 11,8 3,3 32 17 50 27 SSE 1012,6 - 0,0
05.04.2020 05:00:00 9,0 4,2 18 10 27 14 E 1013,3 18 0,0
05.04.2020 04:00:00 8,9 5,1 18 10 26 14 E 1014,1 - 0,0
05.04.2020 03:00:00 8,8 5,0 20 11 25 14 E 1014,8 - 0,0
05.04.2020 02:00:00 9,2 5,2 19 11 26 14 E 1015,5 18 0,0
05.04.2020 01:00:00 9,7 5,5 19 11 26 14 E 1016,0 - 0,0
05.04.2020 00:00:00 8,9 5,6 18 10 23 12 ESE 1016,1 - 0,0
04.04.2020 23:00:00 7,7 5,3 16 9 18 10 ESE 1016,3 30 0,0
04.04.2020 22:00:00 9,0 6,8 16 9 29 16 E 1016,4 - 0,0
04.04.2020 21:00:00 9,8 7,2 21 11 32 17 E 1016,2 - 0,0
04.04.2020 20:00:00 10,9 7,6 15 8 31 17 E 1016,5 16 0,0
04.04.2020 19:00:00 12,1 7,8 22 12 29 16 E 1016,6 - 0,0
04.04.2020 18:00:00 13,2 8,1 19 11 31 17 E 1017,0 - 0,0
04.04.2020 17:00:00 13,0 8,9 14 8 23 12 ENE 1017,7 14 0,0
04.04.2020 16:00:00 13,1 9,2 11 6 20 11 ENE 1018,4 - 0,0
04.04.2020 15:00:00 13,4 9,1 11 6 23 12 NE 1018,7 - 0,0
04.04.2020 14:00:00 15,0 7,3 16 8 23 12 SSW 1019,0 24 0,0
04.04.2020 13:00:00 14,7 8,0 16 9 30 16 SSW 1019,5 - 0,0
04.04.2020 12:00:00 14,2 7,0 22 12 30 16 SSE 1019,9 - 0,0
04.04.2020 11:00:00 12,8 7,0 21 11 31 17 SSE 1019,8 30 0,0
04.04.2020 10:00:00 11,3 7,0 16 9 27 14 SSE 1019,9 - 0,0
04.04.2020 09:00:00 9,3 6,9 15 8 23 12 SSE 1019,8 - 0,0
04.04.2020 08:00:00 6,5 5,0 5 3 17 9 E 1019,6 12 0,0
04.04.2020 07:00:00 5,4 4,5 2 1 10 6 ESE 1019,4 - 0,0
04.04.2020 06:00:00 5,5 4,8 7 4 12 6 E 1019,7 - 0,0
04.04.2020 05:00:00 6,2 5,6 2 1 9 5 S 1020,2 12 0,0
04.04.2020 04:00:00 6,1 5,4 8 4 12 6 SSW 1020,5 - 0,2
04.04.2020 03:00:00 5,8 5,2 10 6 14 7 SE 1020,3 - 0,0
04.04.2020 02:00:00 6,8 6,2 13 7 18 10 SE 1020,5 0,2 0,0
04.04.2020 01:00:00 5,9 5,2 8 5 9 5 S 1020,4 - 0,0
04.04.2020 00:00:00 6,0 5,1 5 3 6 4 S 1020,3 - 0,0
03.04.2020 23:00:00 6,5 5,4 6 4 9 5 SSW 1020,3 20 0,0
03.04.2020 22:00:00 7,6 6,4 6 3 10 5 SSW 1020,1 - 0,0
03.04.2020 21:00:00 8,6 6,9 5 3 11 6 SSW 1019,9 - 0,0
03.04.2020 20:00:00 10,1 8,0 8 4 16 8 SW 1019,9 12 0,0
03.04.2020 19:00:00 11,2 8,8 10 6 15 8 SW 1019,8 - 0,0
03.04.2020 18:00:00 11,6 9,0 10 5 14 8 WSW 1019,9 - 0,0
03.04.2020 17:00:00 10,8 8,6 10 5 20 11 WSW 1020,0 12 0,0
03.04.2020 16:00:00 12,3 9,8 13 7 21 11 WSW 1020,1 - 0,0
03.04.2020 15:00:00 12,0 9,4 13 7 18 10 W 1020,0 - 0,0
03.04.2020 14:00:00 11,5 9,2 13 7 18 10 W 1020,0 10 0,0
03.04.2020 13:00:00 11,5 9,2 11 6 16 9 W 1020,1 - 0,0
03.04.2020 12:00:00 11,1 8,8 9 5 17 9 W 1019,9 - 0,0
03.04.2020 11:00:00 11,1 9,4 12 7 18 10 W 1019,5 - 0,0
03.04.2020 10:00:00 9,8 8,2 11 6 16 9 W 1019,0 - 0,0
03.04.2020 09:00:00 9,4 7,8 11 6 22 12 W 1018,8 - 0,0
03.04.2020 08:00:00 9,2 7,6 16 9 23 12 W 1018,5 14 0,0
03.04.2020 07:00:00 9,2 7,5 17 9 26 14 W 1017,9 - 0,0
03.04.2020 06:00:00 9,2 7,3 21 11 29 16 WNW 1017,6 - 0,0
03.04.2020 05:00:00 9,4 7,3 24 13 32 17 NW 1017,4 16 0,0
03.04.2020 04:00:00 9,5 7,6 25 14 34 18 WNW 1017,5 - 0,0
03.04.2020 03:00:00 9,5 7,3 24 13 34 18 WNW 1017,5 - 0,0
03.04.2020 02:00:00 9,6 7,2 27 14 35 19 WNW 1017,7 12 0,0
03.04.2020 01:00:00 9,8 7,2 29 16 40 21 WNW 1017,9 - 0,0
03.04.2020 00:00:00 9,6 7,2 26 14 37 20 WNW 1017,7 - 0,0
02.04.2020 23:00:00 9,7 7,3 27 14 35 19 NW 1017,8 20 0,0
02.04.2020 22:00:00 9,7 7,5 22 12 28 15 NW 1017,9 - 0,0
02.04.2020 21:00:00 9,7 7,5 18 10 38 21 WNW 1017,5 - 0,0
02.04.2020 20:00:00 10,3 7,5 27 15 39 21 WNW 1017,1 16 0,0
02.04.2020 19:00:00 10,8 7,8 21 12 33 18 WNW 1017,2 - 0,0
02.04.2020 18:00:00 10,8 8,2 23 12 32 17 W 1017,3 - 0,0
02.04.2020 17:00:00 10,4 6,9 21 11 29 16 W 1017,6 16 0,0
02.04.2020 16:00:00 11,0 6,5 18 10 31 17 W 1017,9 - 0,0
02.04.2020 15:00:00 11,2 6,9 19 10 29 16 W 1017,9 - 0,0
02.04.2020 14:00:00 10,8 6,5 18 10 27 15 WNW 1018,5 18 0,0
02.04.2020 13:00:00 10,8 6,3 18 10 23 12 WNW 1018,8 - 0,0
02.04.2020 12:00:00 9,2 4,4 14 8 21 11 NW 1019,1 - 0,0
02.04.2020 11:00:00 9,0 3,6 16 9 24 13 NW 1019,2 20 0,0
02.04.2020 10:00:00 8,7 3,3 17 9 24 13 NNW 1019,0 - 0,0
02.04.2020 09:00:00 8,4 1,1 16 9 30 16 N 1019,1 - 0,0
02.04.2020 08:00:00 8,3 0,5 17 9 29 16 N 1019,0 16 0,0
02.04.2020 07:00:00 8,2 0,9 17 9 23 12 N 1018,7 - 0,0
02.04.2020 06:00:00 8,3 1,4 18 10 27 14 N 1018,9 - 0,0
02.04.2020 05:00:00 8,2 -0,6 14 8 27 15 NNE 1019,2 14 0,0
02.04.2020 04:00:00 8,2 0,4 13 7 20 11 NNE 1019,6 - 0,0
02.04.2020 03:00:00 8,2 -0,1 19 10 29 16 N 1020,2 - 0,0
02.04.2020 02:00:00 8,4 0,8 17 9 29 16 NNE 1020,2 14 0,0
02.04.2020 01:00:00 8,4 1,1 19 11 26 14 NNE 1020,4 - 0,0
02.04.2020 00:00:00 8,2 0,4 16 9 26 14 NNE 1020,8 - 0,0
01.04.2020 23:00:00 7,9 1,3 23 12 31 17 NNE 1021,0 20 0,0
01.04.2020 22:00:00 7,7 3,0 19 11 25 14 N 1021,0 - 0,0
01.04.2020 21:00:00 7,2 2,3 18 10 26 14 N 1020,8 - 0,0
01.04.2020 20:00:00 7,7 2,8 17 9 24 13 NNE 1020,9 14 0,0
01.04.2020 19:00:00 8,2 2,2 15 8 25 13 NE 1021,0 - 0,0
01.04.2020 18:00:00 8,6 2,4 16 9 27 15 NE 1021,3 - 0,0
01.04.2020 17:00:00 8,9 3,7 17 9 31 17 NE 1021,8 14 0,0
01.04.2020 16:00:00 8,8 3,4 18 10 35 19 NE 1022,2 - 0,0
01.04.2020 15:00:00 8,4 4,0 23 12 35 19 NNE 1022,6 - 0,0
01.04.2020 14:00:00 8,9 4,1 22 12 33 18 NE 1022,9 12 0,0
01.04.2020 13:00:00 9,4 3,6 20 11 32 17 NE 1023,4 - 0,0
01.04.2020 12:00:00 9,0 2,8 24 13 33 18 ENE 1023,8 - 0,0
01.04.2020 11:00:00 8,7 3,1 23 13 32 18 NE 1024,1 20 0,0
01.04.2020 10:00:00 8,1 2,7 24 13 36 19 NE 1024,1 - 0,0
01.04.2020 09:00:00 7,4 2,7 25 14 34 19 ENE 1024,2 - 0,0
01.04.2020 08:00:00 6,7 2,6 26 14 36 19 ENE 1024,1 16 0,0
01.04.2020 07:00:00 6,6 2,5 27 15 39 21 ENE 1024,2 - 0,0
01.04.2020 06:00:00 6,6 2,5 28 15 40 21 ENE 1024,4 - 0,0
01.04.2020 05:00:00 6,8 2,9 27 15 41 22 ENE 1024,6 16 0,0
01.04.2020 04:00:00 6,9 3,0 29 15 41 22 ENE 1025,4 - 0,0
01.04.2020 03:00:00 7,0 3,2 32 18 46 25 ENE 1025,9 - 0,0
01.04.2020 02:00:00 7,0 2,9 37 20 53 29 ENE 1026,1 14 0,0
01.04.2020 01:00:00 6,9 1,4 40 22 55 30 ENE 1026,4 - 0,0
01.04.2020 00:00:00 7,2 1,3 43 23 62 33 ENE 1026,8 - 0,0
31.03.2020 23:00:00 7,6 1,6 45 24 65 35 ENE 1026,8 20 0,0
31.03.2020 22:00:00 7,7 1,5 48 26 67 36 ENE 1026,8 - 0,0
31.03.2020 21:00:00 7,9 1,7 46 25 69 38 ENE 1026,8 - 0,0
31.03.2020 20:00:00 8,0 0,5 46 25 66 36 ENE 1026,8 18 0,0
31.03.2020 19:00:00 8,5 2,1 45 24 61 33 ENE 1027,1 - 0,0
31.03.2020 18:00:00 8,7 2,5 45 24 67 36 ENE 1027,1 - 0,0
31.03.2020 17:00:00 8,9 3,1 47 25 64 34 ENE 1027,6 16 0,0
31.03.2020 16:00:00 9,3 3,9 41 22 60 32 ENE 1028,0 - 0,0
31.03.2020 15:00:00 9,0 3,8 43 23 61 33 ENE 1028,3 - 0,0

tt = Température de l'air
td = dewpoint
ff = Vitesse du vent
fx = gusts
dd = Direction du vent
ppp = reduced air pressure
vv = visibility
rr = Quantités de précipitations

stations d'obs. à proximité